Satellite-Ground Cal/Val Site Overpasses Predictions

Prediction of Satellite NPP Overpassing Cal/Val Site: Antarctic Dome C

Ground Cal/Val Site Location: Latitude: -75.10, Longitude: 123.35; Satellite-Ground Site NADIR distance within 100 km.

Table of predicted overpasses for the next 14.0 days since TLE Epoch: 6/21/2014
Interval Starting Time Ending Time Minimum Distance Time Minimum Distance (km)
1 06/22/2014 07:31:56 06/22/2014 07:32:22 06/22/2014 07:32:09 41.41
2 06/25/2014 14:55:24 06/25/2014 14:55:53 06/25/2014 14:55:39 7.07
3 06/27/2014 07:38:15 06/27/2014 07:38:45 06/27/2014 07:38:30 5.04
4 06/30/2014 15:01:47 06/30/2014 15:02:15 06/30/2014 15:02:01 29.28
5 07/01/2014 14:43:03 07/01/2014 14:43:21 07/01/2014 14:43:12 77.85
6 07/02/2014 07:44:38 07/02/2014 07:45:06 07/02/2014 07:44:52 30.64
7 07/03/2014 07:25:54 07/03/2014 07:26:11 07/03/2014 07:26:03 79.40


NCC Satellite Cal/Val Overpasses Prediction Service
